TimeCDT,TemperatureF,Dew PointF,Humidity,Sea Level PressureIn,VisibilityMPH,Wind Direction,Wind SpeedMPH,Gust SpeedMPH,PrecipitationIn,Events,Conditions,WindDirDegrees,DateUTC
12:55 AM,16.3,13.6,89,29.95,2.5,NW,8.1,-,N/A,Snow,Light Snow,310,2013-03-13 05:55:00
1:15 AM,16.5,14.0,90,29.96,1.2,NW,8.1,-,N/A,Snow,Light Snow,310,2013-03-13 06:15:00
1:35 AM,16.3,13.5,88,29.96,2.5,NW,8.1,-,N/A,Snow,Light Snow,320,2013-03-13 06:35:00
1:55 AM,16.3,13.1,87,29.97,3.0,NW,10.4,-,N/A,Snow,Light Snow,320,2013-03-13 06:55:00
2:15 AM,15.8,12.0,85,29.97,10.0,NW,9.2,-,N/A,,Overcast,320,2013-03-13 07:15:00
2:35 AM,15.8,12.2,86,29.97,4.0,NNW,10.4,-,N/A,,Overcast,330,2013-03-13 07:35:00
2:55 AM,15.6,11.8,85,29.98,4.0,NW,9.2,-,N/A,Snow,Light Snow,320,2013-03-13 07:55:00
3:15 AM,15.6,12.2,86,29.98,4.0,NW,10.4,-,N/A,Snow,Light Snow,320,2013-03-13 08:15:00
3:55 AM,15.1,11.1,84,29.99,10.0,NW,9.2,-,N/A,,Overcast,310,2013-03-13 08:55:00
4:15 AM,14.0,10.2,85,30.00,10.0,NW,9.2,-,N/A,,Overcast,310,2013-03-13 09:15:00
4:35 AM,13.8,9.7,84,30.01,10.0,WNW,9.2,-,N/A,,Mostly Cloudy,300,2013-03-13 09:35:00
4:55 AM,13.1,9.0,84,30.02,10.0,WNW,9.2,-,N/A,,Scattered Clouds,300,2013-03-13 09:55:00
5:15 AM,12.2,8.4,85,30.02,10.0,WNW,6.9,-,N/A,,Scattered Clouds,300,2013-03-13 10:15:00
5:35 AM,12.4,8.6,85,30.03,10.0,WNW,8.1,-,N/A,,Clear,300,2013-03-13 10:35:00
5:55 AM,12.4,8.6,85,30.04,10.0,WNW,9.2,-,N/A,,Scattered Clouds,300,2013-03-13 10:55:00
6:15 AM,11.8,8.2,85,30.04,10.0,WNW,9.2,-,N/A,,Scattered Clouds,300,2013-03-13 11:15:00
6:35 AM,12.2,8.4,85,30.05,10.0,NW,8.1,-,N/A,,Scattered Clouds,310,2013-03-13 11:35:00
6:55 AM,12.2,8.1,83,30.05,10.0,NW,8.1,-,N/A,,Mostly Cloudy,310,2013-03-13 11:55:00
7:35 AM,13.1,7.7,79,30.07,10.0,NW,10.4,-,N/A,,Overcast,310,2013-03-13 12:35:00
7:55 AM,13.1,7.5,78,30.08,10.0,NW,11.5,-,N/A,,Overcast,310,2013-03-13 12:55:00
8:15 AM,13.1,7.2,77,30.09,10.0,NW,11.5,-,N/A,,Scattered Clouds,310,2013-03-13 13:15:00
8:35 AM,13.6,7.2,75,30.09,10.0,NW,11.5,16.1,N/A,,Clear,310,2013-03-13 13:35:00
8:55 AM,14.7,7.5,73,30.10,10.0,NW,11.5,19.6,N/A,,Clear,310,2013-03-13 13:55:00
9:15 AM,15.4,7.5,71,30.11,10.0,NW,12.7,-,N/A,,Clear,310,2013-03-13 14:15:00
9:35 AM,15.6,7.3,70,30.12,10.0,NW,10.4,18.4,N/A,,Clear,310,2013-03-13 14:35:00
9:55 AM,16.7,7.7,68,30.13,10.0,NNW,12.7,17.3,N/A,,Clear,330,2013-03-13 14:55:00
10:15 AM,18.3,7.7,63,30.14,7.0,NNW,16.1,20.7,N/A,,Clear,340,2013-03-13 15:15:00
10:35 AM,19.2,7.5,60,30.15,7.0,NNW,12.7,-,N/A,,Clear,340,2013-03-13 15:35:00
10:55 AM,19.9,6.6,56,30.15,10.0,NNW,12.7,-,N/A,,Clear,340,2013-03-13 15:55:00
11:15 AM,20.8,6.8,55,30.15,10.0,NNW,12.7,-,N/A,,Clear,330,2013-03-13 16:15:00
11:35 AM,21.7,7.2,54,30.16,10.0,NNW,15.0,-,N/A,,Clear,330,2013-03-13 16:35:00
11:55 AM,22.6,6.8,51,30.16,10.0,NNW,13.8,-,N/A,,Clear,340,2013-03-13 16:55:00
12:15 PM,23.7,7.3,50,30.16,10.0,NNW,13.8,-,N/A,,Clear,330,2013-03-13 17:15:00
12:35 PM,23.9,5.9,46,30.16,10.0,NNW,13.8,-,N/A,,Clear,340,2013-03-13 17:35:00
12:55 PM,24.6,5.9,45,30.16,10.0,NNW,15.0,-,N/A,,Clear,340,2013-03-13 17:55:00
1:15 PM,25.3,5.9,44,30.17,10.0,NNW,15.0,-,N/A,,Clear,330,2013-03-13 18:15:00
1:35 PM,26.2,5.7,42,30.17,10.0,NNW,11.5,-,N/A,,Clear,340,2013-03-13 18:35:00
2:15 PM,27.5,6.8,42,30.16,10.0,NW,11.5,-,N/A,,Clear,320,2013-03-13 19:15:00
2:35 PM,27.7,7.3,42,30.16,10.0,WNW,11.5,16.1,N/A,,Clear,300,2013-03-13 19:35:00
2:55 PM,28.4,6.8,40,30.16,10.0,WNW,11.5,-,N/A,,Clear,300,2013-03-13 19:55:00
3:15 PM,28.9,6.8,39,30.17,10.0,WNW,11.5,19.6,N/A,,Clear,290,2013-03-13 20:15:00
3:35 PM,28.9,7.2,40,30.17,10.0,WNW,12.7,17.3,N/A,,Clear,300,2013-03-13 20:35:00
3:55 PM,28.9,7.7,41,30.17,10.0,NNW,10.4,-,N/A,,Clear,330,2013-03-13 20:55:00
4:15 PM,29.1,9.0,43,30.17,10.0,NW,9.2,-,N/A,,Clear,320,2013-03-13 21:15:00
4:35 PM,29.1,10.2,45,30.17,10.0,West,13.8,-,N/A,,Clear,280,2013-03-13 21:35:00
4:55 PM,28.8,10.2,46,30.18,10.0,WNW,13.8,-,N/A,,Clear,290,2013-03-13 21:55:00
5:15 PM,28.6,10.4,47,30.18,10.0,NW,11.5,-,N/A,,Clear,310,2013-03-13 22:15:00
5:35 PM,28.4,9.9,46,30.18,10.0,WNW,12.7,-,N/A,,Clear,300,2013-03-13 22:35:00
5:55 PM,28.2,9.3,45,30.19,10.0,NW,8.1,-,N/A,,Clear,310,2013-03-13 22:55:00
6:15 PM,28.0,7.5,42,30.19,10.0,NW,8.1,-,N/A,,Clear,310,2013-03-13 23:15:00
6:35 PM,27.3,6.8,42,30.18,10.0,NW,6.9,-,N/A,,Clear,310,2013-03-13 23:35:00
6:55 PM,26.2,7.0,44,30.18,10.0,NW,5.8,-,N/A,,Clear,310,2013-03-13 23:55:00
7:15 PM,24.4,6.4,46,30.19,10.0,WNW,4.6,-,N/A,,Clear,290,2013-03-14 00:15:00
7:35 PM,23.9,7.3,49,30.19,10.0,WNW,4.6,-,N/A,,Clear,300,2013-03-14 00:35:00
7:55 PM,23.5,7.7,51,30.19,10.0,WNW,4.6,-,N/A,,Clear,300,2013-03-14 00:55:00
8:15 PM,23.0,6.4,49,30.19,10.0,NW,4.6,-,N/A,,Clear,320,2013-03-14 01:15:00
8:35 PM,21.0,5.7,52,30.19,10.0,NW,3.5,-,N/A,,Clear,310,2013-03-14 01:35:00
8:55 PM,19.4,5.2,54,30.19,10.0,NW,3.5,-,N/A,,Clear,320,2013-03-14 01:55:00
9:15 PM,14.4,4.6,65,30.19,10.0,SSW,4.6,-,N/A,,Clear,200,2013-03-14 02:15:00
9:35 PM,13.6,4.5,67,30.20,10.0,West,3.5,-,N/A,,Clear,280,2013-03-14 02:35:00
9:55 PM,14.5,5.2,66,30.20,10.0,WSW,4.6,-,N/A,,Clear,250,2013-03-14 02:55:00
10:15 PM,13.6,3.4,64,30.20,10.0,West,5.8,-,N/A,,Clear,260,2013-03-14 03:15:00
10:35 PM,11.8,1.6,63,30.20,10.0,West,4.6,-,N/A,,Clear,260,2013-03-14 03:35:00
10:55 PM,12.2,1.0,61,30.20,10.0,West,4.6,-,N/A,,Clear,280,2013-03-14 03:55:00
11:15 PM,9.7,1.9,71,30.20,10.0,Calm,Calm,-,N/A,,Clear,0,2013-03-14 04:15:00
11:35 PM,6.4,-0.8,72,30.20,10.0,Calm,Calm,-,N/A,,Clear,0,2013-03-14 04:35:00
11:55 PM,3.6,-2.6,76,30.20,10.0,Calm,Calm,-,N/A,,Clear,0,2013-03-14 04:55:00